Regional Weather Roundup
Issued by NWS

Home | Current Version | Previous Version | Text Only | Print | Product List | Glossary On
Versions: 1 2 3 4 5 6 7 8 9 10 11 12 13 14 15 16 17 18 19 20 21 22 23 24 25 26 27
000
ASUS45 KREV 211310
RWRNV
NEVADA REGIONAL WEATHER ROUNDUP
NATIONAL WEATHER SERVICE RENO NV
600 AM PDT MON MAY 21 2018

NOTE: "FAIR" INDICATES FEW OR NO CLOUDS BELOW 12,000 FEET WITH NO
SIGNIFICANT WEATHER AND/OR OBSTRUCTIONS TO VISIBILITY.

NVZ001-003-004-211400-
WESTERN NEVADA

CITY           SKY/WX    TMP DP  RH WIND       PRES   REMARKS
RENO           CLOUDY    56  43  61 N6        29.91S
MINDEN         MOCLDY    48  48 100 SE5       29.92S
FALLON         CLOUDY    54  52  93 S3        29.87S
LOVELOCK       CLOUDY    55  48  77 E3        29.87S
$$

NVZ002-CAZ072-073-211400-
NORTHERN AND CENTRAL SIERRA

CITY           SKY/WX    TMP DP  RH WIND       PRES   REMARKS
S. LAKE TAHOE  LGT RAIN  44  41  89 SE5       29.94S
TRUCKEE        CLOUDY    37  36  93 CALM      29.95F
SQUAW VLY 8000 NOT AVBL
BLUE CANYON    MOCLDY    52  38  58 VRB6      29.90F
MAMMOTH LAKES  CLOUDY    42  38  84 W9        29.97R
BRIDGEPORT     LGT RAIN  43  39  86 CALM      29.94S FOG
$$

NVZ030-031-036-211400-
NORTHERN NEVADA

CITY           SKY/WX    TMP DP  RH WIND       PRES   REMARKS
ELKO           CLOUDY    47  44  90 NW3       29.93S
WINNEMUCCA     PTCLDY    48  44  86 NW6       29.90S
WENDOVER       PTCLDY    56  46  69 CALM      29.90R
$$

NVZ035-037-211400-
CENTRAL NEVADA

CITY           SKY/WX    TMP DP  RH WIND       PRES   REMARKS
ELY            CLOUDY    40  39  97 S8        29.97S
EUREKA           N/A     45  42  89 E3        29.93R
$$

NVZ013-014-211400-
SOUTH CENTRAL NEVADA

CITY           SKY/WX    TMP DP  RH WIND       PRES   REMARKS
TONOPAH        LGT RAIN  51  45  79 NW14      29.89S
$$

NVZ017-020-022-211400-
SOUTHERN NEVADA

CITY           SKY/WX    TMP DP  RH WIND       PRES   REMARKS
LAS VEGAS      CLOUDY    73  39  29 S7        29.71R
N. LAS VEGAS   CLOUDY    73  38  27 S9        29.71R
NELLIS AFB     CLOUDY    74  40  28 CALM      29.71R
HENDERSON      CLOUDY    70  38  31 SW12      29.75R
MERCURY        CLOUDY    68  37  32 W14       29.75R
$$




USA.gov is the U.S. government's official web portal to all federal, state and local government web resources and services.